Index of /20260501/WXO-DD/model_rdps/10km/18/002
Name Last modified Size Description
Parent Directory -
20260501T18Z_MSC_RDPS_AbsoluteVorticity_IsbL-0250_RLatLon0.09_PT002H.grib2 2026-05-01 20:43 590K
20260501T18Z_MSC_RDPS_AbsoluteVorticity_IsbL-0500_RLatLon0.09_PT002H.grib2 2026-05-01 20:43 540K
20260501T18Z_MSC_RDPS_AbsoluteVorticity_IsbL-0700_RLatLon0.09_PT002H.grib2 2026-05-01 20:43 609K
20260501T18Z_MSC_RDPS_AbsoluteVorticity_IsbL-0850_RLatLon0.09_PT002H.grib2 2026-05-01 20:43 766K
20260501T18Z_MSC_RDPS_AirTemp_AGL-120m_RLatLon0.09_PT002H.grib2 2026-05-01 20:43 388K
20260501T18Z_MSC_RDPS_AirTemp_AGL-2m_RLatLon0.09_PT002H.grib2 2026-05-01 20:43 619K
20260501T18Z_MSC_RDPS_AirTemp_AGL-40m_RLatLon0.09_PT002H.grib2 2026-05-01 20:43 397K
20260501T18Z_MSC_RDPS_AirTemp_AGL-80m_RLatLon0.09_PT002H.grib2 2026-05-01 20:43 391K
20260501T18Z_MSC_RDPS_AirTemp_IsbL-0001_RLatLon0.09_PT002H.grib2 2026-05-01 20:43 272K
20260501T18Z_MSC_RDPS_AirTemp_IsbL-0005_RLatLon0.09_PT002H.grib2 2026-05-01 20:43 272K
20260501T18Z_MSC_RDPS_AirTemp_IsbL-0010_RLatLon0.09_PT002H.grib2 2026-05-01 20:43 280K
20260501T18Z_MSC_RDPS_AirTemp_IsbL-0020_RLatLon0.09_PT002H.grib2 2026-05-01 20:43 386K
20260501T18Z_MSC_RDPS_AirTemp_IsbL-0030_RLatLon0.09_PT002H.grib2 2026-05-01 20:43 314K
20260501T18Z_MSC_RDPS_AirTemp_IsbL-0050_RLatLon0.09_PT002H.grib2 2026-05-01 20:43 294K
20260501T18Z_MSC_RDPS_AirTemp_IsbL-0100_RLatLon0.09_PT002H.grib2 2026-05-01 20:43 402K
20260501T18Z_MSC_RDPS_AirTemp_IsbL-0150_RLatLon0.09_PT002H.grib2 2026-05-01 20:43 403K
20260501T18Z_MSC_RDPS_AirTemp_IsbL-0175_RLatLon0.09_PT002H.grib2 2026-05-01 20:43 401K
20260501T18Z_MSC_RDPS_AirTemp_IsbL-0200_RLatLon0.09_PT002H.grib2 2026-05-01 20:43 404K
20260501T18Z_MSC_RDPS_AirTemp_IsbL-0225_RLatLon0.09_PT002H.grib2 2026-05-01 20:43 403K
20260501T18Z_MSC_RDPS_AirTemp_IsbL-0250_RLatLon0.09_PT002H.grib2 2026-05-01 20:43 408K
20260501T18Z_MSC_RDPS_AirTemp_IsbL-0275_RLatLon0.09_PT002H.grib2 2026-05-01 20:43 390K
20260501T18Z_MSC_RDPS_AirTemp_IsbL-0300_RLatLon0.09_PT002H.grib2 2026-05-01 20:43 397K
20260501T18Z_MSC_RDPS_AirTemp_IsbL-0350_RLatLon0.09_PT002H.grib2 2026-05-01 20:43 412K
20260501T18Z_MSC_RDPS_AirTemp_IsbL-0400_RLatLon0.09_PT002H.grib2 2026-05-01 20:43 414K
20260501T18Z_MSC_RDPS_AirTemp_IsbL-0450_RLatLon0.09_PT002H.grib2 2026-05-01 20:43 387K
20260501T18Z_MSC_RDPS_AirTemp_IsbL-0500_RLatLon0.09_PT002H.grib2 2026-05-01 20:43 399K
20260501T18Z_MSC_RDPS_AirTemp_IsbL-0550_RLatLon0.09_PT002H.grib2 2026-05-01 20:43 421K
20260501T18Z_MSC_RDPS_AirTemp_IsbL-0600_RLatLon0.09_PT002H.grib2 2026-05-01 20:43 442K
20260501T18Z_MSC_RDPS_AirTemp_IsbL-0650_RLatLon0.09_PT002H.grib2 2026-05-01 20:43 458K
20260501T18Z_MSC_RDPS_AirTemp_IsbL-0700_RLatLon0.09_PT002H.grib2 2026-05-01 20:43 379K
20260501T18Z_MSC_RDPS_AirTemp_IsbL-0750_RLatLon0.09_PT002H.grib2 2026-05-01 20:43 410K
20260501T18Z_MSC_RDPS_AirTemp_IsbL-0800_RLatLon0.09_PT002H.grib2 2026-05-01 20:43 449K
20260501T18Z_MSC_RDPS_AirTemp_IsbL-0850_RLatLon0.09_PT002H.grib2 2026-05-01 20:43 492K
20260501T18Z_MSC_RDPS_AirTemp_IsbL-0875_RLatLon0.09_PT002H.grib2 2026-05-01 20:43 511K
20260501T18Z_MSC_RDPS_AirTemp_IsbL-0900_RLatLon0.09_PT002H.grib2 2026-05-01 20:43 519K
20260501T18Z_MSC_RDPS_AirTemp_IsbL-0925_RLatLon0.09_PT002H.grib2 2026-05-01 20:43 518K
20260501T18Z_MSC_RDPS_AirTemp_IsbL-0950_RLatLon0.09_PT002H.grib2 2026-05-01 20:43 523K
20260501T18Z_MSC_RDPS_AirTemp_IsbL-0970_RLatLon0.09_PT002H.grib2 2026-05-01 20:43 515K
20260501T18Z_MSC_RDPS_AirTemp_IsbL-0985_RLatLon0.09_PT002H.grib2 2026-05-01 20:43 519K
20260501T18Z_MSC_RDPS_AirTemp_IsbL-1000_RLatLon0.09_PT002H.grib2 2026-05-01 20:43 507K
20260501T18Z_MSC_RDPS_AirTemp_IsbL-1015_RLatLon0.09_PT002H.grib2 2026-05-01 20:43 502K
20260501T18Z_MSC_RDPS_Albedo_Sfc_RLatLon0.09_PT002H.grib2 2026-05-01 20:43 163K
20260501T18Z_MSC_RDPS_CAPE_Sfc_RLatLon0.09_PT002H.grib2 2026-05-01 20:43 1.6M
20260501T18Z_MSC_RDPS_CIN_Sfc_RLatLon0.09_PT002H.grib2 2026-05-01 20:43 1.2M
20260501T18Z_MSC_RDPS_CloudWater_EAtm_RLatLon0.09_PT002H.grib2 2026-05-01 20:43 217K
20260501T18Z_MSC_RDPS_ConvectivePrecip-Accum_Sfc_RLatLon0.09_PT002H.grib2 2026-05-01 20:43 340K
20260501T18Z_MSC_RDPS_DewPointDepression_AGL-2m_RLatLon0.09_PT002H.grib2 2026-05-01 20:43 413K
20260501T18Z_MSC_RDPS_DewPointDepression_IsbL-0001_RLatLon0.09_PT002H.grib2 2026-05-01 20:43 193
20260501T18Z_MSC_RDPS_DewPointDepression_IsbL-0005_RLatLon0.09_PT002H.grib2 2026-05-01 20:43 193
20260501T18Z_MSC_RDPS_DewPointDepression_IsbL-0010_RLatLon0.09_PT002H.grib2 2026-05-01 20:43 193
20260501T18Z_MSC_RDPS_DewPointDepression_IsbL-0020_RLatLon0.09_PT002H.grib2 2026-05-01 20:43 193
20260501T18Z_MSC_RDPS_DewPointDepression_IsbL-0030_RLatLon0.09_PT002H.grib2 2026-05-01 20:43 193
20260501T18Z_MSC_RDPS_DewPointDepression_IsbL-0050_RLatLon0.09_PT002H.grib2 2026-05-01 20:43 76K
20260501T18Z_MSC_RDPS_DewPointDepression_IsbL-0100_RLatLon0.09_PT002H.grib2 2026-05-01 20:43 122K
20260501T18Z_MSC_RDPS_DewPointDepression_IsbL-0150_RLatLon0.09_PT002H.grib2 2026-05-01 20:43 154K
20260501T18Z_MSC_RDPS_DewPointDepression_IsbL-0175_RLatLon0.09_PT002H.grib2 2026-05-01 20:43 189K
20260501T18Z_MSC_RDPS_DewPointDepression_IsbL-0200_RLatLon0.09_PT002H.grib2 2026-05-01 20:43 224K
20260501T18Z_MSC_RDPS_DewPointDepression_IsbL-0225_RLatLon0.09_PT002H.grib2 2026-05-01 20:43 258K
20260501T18Z_MSC_RDPS_DewPointDepression_IsbL-0250_RLatLon0.09_PT002H.grib2 2026-05-01 20:43 293K
20260501T18Z_MSC_RDPS_DewPointDepression_IsbL-0275_RLatLon0.09_PT002H.grib2 2026-05-01 20:43 300K
20260501T18Z_MSC_RDPS_DewPointDepression_IsbL-0300_RLatLon0.09_PT002H.grib2 2026-05-01 20:43 316K
20260501T18Z_MSC_RDPS_DewPointDepression_IsbL-0350_RLatLon0.09_PT002H.grib2 2026-05-01 20:43 320K
20260501T18Z_MSC_RDPS_DewPointDepression_IsbL-0400_RLatLon0.09_PT002H.grib2 2026-05-01 20:43 330K
20260501T18Z_MSC_RDPS_DewPointDepression_IsbL-0450_RLatLon0.09_PT002H.grib2 2026-05-01 20:43 337K
20260501T18Z_MSC_RDPS_DewPointDepression_IsbL-0500_RLatLon0.09_PT002H.grib2 2026-05-01 20:43 342K
20260501T18Z_MSC_RDPS_DewPointDepression_IsbL-0550_RLatLon0.09_PT002H.grib2 2026-05-01 20:43 353K
20260501T18Z_MSC_RDPS_DewPointDepression_IsbL-0600_RLatLon0.09_PT002H.grib2 2026-05-01 20:43 368K
20260501T18Z_MSC_RDPS_DewPointDepression_IsbL-0650_RLatLon0.09_PT002H.grib2 2026-05-01 20:43 373K
20260501T18Z_MSC_RDPS_DewPointDepression_IsbL-0700_RLatLon0.09_PT002H.grib2 2026-05-01 20:43 383K
20260501T18Z_MSC_RDPS_DewPointDepression_IsbL-0750_RLatLon0.09_PT002H.grib2 2026-05-01 20:43 406K
20260501T18Z_MSC_RDPS_DewPointDepression_IsbL-0800_RLatLon0.09_PT002H.grib2 2026-05-01 20:43 440K
20260501T18Z_MSC_RDPS_DewPointDepression_IsbL-0850_RLatLon0.09_PT002H.grib2 2026-05-01 20:43 466K
20260501T18Z_MSC_RDPS_DewPointDepression_IsbL-0875_RLatLon0.09_PT002H.grib2 2026-05-01 20:43 468K
20260501T18Z_MSC_RDPS_DewPointDepression_IsbL-0900_RLatLon0.09_PT002H.grib2 2026-05-01 20:43 460K
20260501T18Z_MSC_RDPS_DewPointDepression_IsbL-0925_RLatLon0.09_PT002H.grib2 2026-05-01 20:43 447K
20260501T18Z_MSC_RDPS_DewPointDepression_IsbL-0950_RLatLon0.09_PT002H.grib2 2026-05-01 20:43 442K
20260501T18Z_MSC_RDPS_DewPointDepression_IsbL-0970_RLatLon0.09_PT002H.grib2 2026-05-01 20:43 433K
20260501T18Z_MSC_RDPS_DewPointDepression_IsbL-0985_RLatLon0.09_PT002H.grib2 2026-05-01 20:43 429K
20260501T18Z_MSC_RDPS_DewPointDepression_IsbL-1000_RLatLon0.09_PT002H.grib2 2026-05-01 20:43 423K
20260501T18Z_MSC_RDPS_DewPointDepression_IsbL-1015_RLatLon0.09_PT002H.grib2 2026-05-01 20:43 412K
20260501T18Z_MSC_RDPS_DewPoint_AGL-2m_RLatLon0.09_PT002H.grib2 2026-05-01 20:43 390K
20260501T18Z_MSC_RDPS_DownwardLongwaveRadiationFlux-Accum_Sfc_RLatLon0.09_PT002H.grib2 2026-05-01 20:43 510K
20260501T18Z_MSC_RDPS_DownwardShortwaveRadiationFlux-Accum_NTAtm_RLatLon0.09_PT002H.grib2 2026-05-01 20:43 150K
20260501T18Z_MSC_RDPS_DownwardShortwaveRadiationFlux-Accum_Sfc_RLatLon0.09_PT002H.grib2 2026-05-01 20:43 588K
20260501T18Z_MSC_RDPS_FreezingRain-Accum1h_Sfc_RLatLon0.09_PT002H.grib2 2026-05-01 20:43 10K
20260501T18Z_MSC_RDPS_FreezingRain-Accum_Sfc_RLatLon0.09_PT002H.grib2 2026-05-01 20:43 13K
20260501T18Z_MSC_RDPS_GeopotentialHeight_IsbL-0001_RLatLon0.09_PT002H.grib2 2026-05-01 20:43 241K
20260501T18Z_MSC_RDPS_GeopotentialHeight_IsbL-0005_RLatLon0.09_PT002H.grib2 2026-05-01 20:43 333K
20260501T18Z_MSC_RDPS_GeopotentialHeight_IsbL-0010_RLatLon0.09_PT002H.grib2 2026-05-01 20:43 300K
20260501T18Z_MSC_RDPS_GeopotentialHeight_IsbL-0020_RLatLon0.09_PT002H.grib2 2026-05-01 20:43 299K
20260501T18Z_MSC_RDPS_GeopotentialHeight_IsbL-0030_RLatLon0.09_PT002H.grib2 2026-05-01 20:43 300K
20260501T18Z_MSC_RDPS_GeopotentialHeight_IsbL-0050_RLatLon0.09_PT002H.grib2 2026-05-01 20:43 301K
20260501T18Z_MSC_RDPS_GeopotentialHeight_IsbL-0100_RLatLon0.09_PT002H.grib2 2026-05-01 20:43 281K
20260501T18Z_MSC_RDPS_GeopotentialHeight_IsbL-0150_RLatLon0.09_PT002H.grib2 2026-05-01 20:43 227K
20260501T18Z_MSC_RDPS_GeopotentialHeight_IsbL-0175_RLatLon0.09_PT002H.grib2 2026-05-01 20:43 261K
20260501T18Z_MSC_RDPS_GeopotentialHeight_IsbL-0200_RLatLon0.09_PT002H.grib2 2026-05-01 20:43 265K
20260501T18Z_MSC_RDPS_GeopotentialHeight_IsbL-0225_RLatLon0.09_PT002H.grib2 2026-05-01 20:43 266K
20260501T18Z_MSC_RDPS_GeopotentialHeight_IsbL-0250_RLatLon0.09_PT002H.grib2 2026-05-01 20:43 267K
20260501T18Z_MSC_RDPS_GeopotentialHeight_IsbL-0275_RLatLon0.09_PT002H.grib2 2026-05-01 20:43 265K
20260501T18Z_MSC_RDPS_GeopotentialHeight_IsbL-0300_RLatLon0.09_PT002H.grib2 2026-05-01 20:43 233K
20260501T18Z_MSC_RDPS_GeopotentialHeight_IsbL-0350_RLatLon0.09_PT002H.grib2 2026-05-01 20:43 229K
20260501T18Z_MSC_RDPS_GeopotentialHeight_IsbL-0400_RLatLon0.09_PT002H.grib2 2026-05-01 20:43 227K
20260501T18Z_MSC_RDPS_GeopotentialHeight_IsbL-0450_RLatLon0.09_PT002H.grib2 2026-05-01 20:43 294K
20260501T18Z_MSC_RDPS_GeopotentialHeight_IsbL-0500_RLatLon0.09_PT002H.grib2 2026-05-01 20:43 290K
20260501T18Z_MSC_RDPS_GeopotentialHeight_IsbL-0550_RLatLon0.09_PT002H.grib2 2026-05-01 20:43 287K
20260501T18Z_MSC_RDPS_GeopotentialHeight_IsbL-0600_RLatLon0.09_PT002H.grib2 2026-05-01 20:43 283K
20260501T18Z_MSC_RDPS_GeopotentialHeight_IsbL-0650_RLatLon0.09_PT002H.grib2 2026-05-01 20:43 255K
20260501T18Z_MSC_RDPS_GeopotentialHeight_IsbL-0700_RLatLon0.09_PT002H.grib2 2026-05-01 20:43 255K
20260501T18Z_MSC_RDPS_GeopotentialHeight_IsbL-0750_RLatLon0.09_PT002H.grib2 2026-05-01 20:43 340K
20260501T18Z_MSC_RDPS_GeopotentialHeight_IsbL-0800_RLatLon0.09_PT002H.grib2 2026-05-01 20:43 346K
20260501T18Z_MSC_RDPS_GeopotentialHeight_IsbL-0850_RLatLon0.09_PT002H.grib2 2026-05-01 20:43 353K
20260501T18Z_MSC_RDPS_GeopotentialHeight_IsbL-0875_RLatLon0.09_PT002H.grib2 2026-05-01 20:43 354K
20260501T18Z_MSC_RDPS_GeopotentialHeight_IsbL-0900_RLatLon0.09_PT002H.grib2 2026-05-01 20:43 360K
20260501T18Z_MSC_RDPS_GeopotentialHeight_IsbL-0925_RLatLon0.09_PT002H.grib2 2026-05-01 20:43 362K
20260501T18Z_MSC_RDPS_GeopotentialHeight_IsbL-0950_RLatLon0.09_PT002H.grib2 2026-05-01 20:43 368K
20260501T18Z_MSC_RDPS_GeopotentialHeight_IsbL-0970_RLatLon0.09_PT002H.grib2 2026-05-01 20:43 407K
20260501T18Z_MSC_RDPS_GeopotentialHeight_IsbL-0985_RLatLon0.09_PT002H.grib2 2026-05-01 20:43 416K
20260501T18Z_MSC_RDPS_GeopotentialHeight_IsbL-1000_RLatLon0.09_PT002H.grib2 2026-05-01 20:43 430K
20260501T18Z_MSC_RDPS_GeopotentialHeight_IsbL-1015_RLatLon0.09_PT002H.grib2 2026-05-01 20:43 446K
20260501T18Z_MSC_RDPS_Humidex_Sfc_RLatLon0.09_PT002H.grib2 2026-05-01 20:43 2.4M
20260501T18Z_MSC_RDPS_IcePellets-Accum1h_Sfc_RLatLon0.09_PT002H.grib2 2026-05-01 20:43 6.2K
20260501T18Z_MSC_RDPS_IcePellets-Accum_Sfc_RLatLon0.09_PT002H.grib2 2026-05-01 20:43 7.8K
20260501T18Z_MSC_RDPS_KIndex_Sfc_RLatLon0.09_PT002H.grib2 2026-05-01 20:43 2.4M
20260501T18Z_MSC_RDPS_LatentHeatNetFlux_Sfc_RLatLon0.09_PT002H.grib2 2026-05-01 20:43 301K
20260501T18Z_MSC_RDPS_LiftedIndex-MU-VT_IsbL-0500_RLatLon0.09_PT002H.grib2 2026-05-01 20:43 2.4M
20260501T18Z_MSC_RDPS_NetLongwaveRadiationFlux-Accum_Sfc_RLatLon0.09_PT002H.grib2 2026-05-01 20:43 665K
20260501T18Z_MSC_RDPS_NetShortwaveRadiationFlux-Accum_Sfc_RLatLon0.09_PT002H.grib2 2026-05-01 20:43 579K
20260501T18Z_MSC_RDPS_PlanetaryBoundaryLayerHeight_Sfc_RLatLon0.09_PT002H.grib2 2026-05-01 20:43 1.0M
20260501T18Z_MSC_RDPS_Precip-Accum1h_Sfc_RLatLon0.09_PT002H.grib2 2026-05-01 20:43 1.1M
20260501T18Z_MSC_RDPS_Precip-Accum_Sfc_RLatLon0.09_PT002H.grib2 2026-05-01 20:43 1.1M
20260501T18Z_MSC_RDPS_PrecipRate_Sfc_RLatLon0.09_PT002H.grib2 2026-05-01 20:43 167K
20260501T18Z_MSC_RDPS_PrecipType-Instant_Sfc_RLatLon0.09_PT002H.grib2 2026-05-01 20:43 542K
20260501T18Z_MSC_RDPS_Pressure_MSL_RLatLon0.09_PT002H.grib2 2026-05-01 20:43 328K
20260501T18Z_MSC_RDPS_Pressure_PVU-1.5_RLatLon0.09_PT002H.grib2 2026-05-01 20:43 2.4M
20260501T18Z_MSC_RDPS_Pressure_PVU-1_RLatLon0.09_PT002H.grib2 2026-05-01 20:43 2.4M
20260501T18Z_MSC_RDPS_Pressure_PVU-2_RLatLon0.09_PT002H.grib2 2026-05-01 20:43 2.4M
20260501T18Z_MSC_RDPS_Pressure_Sfc_RLatLon0.09_PT002H.grib2 2026-05-01 20:43 498K
20260501T18Z_MSC_RDPS_RadiativeTemp_Sfc_RLatLon0.09_PT002H.grib2 2026-05-01 20:43 326K
20260501T18Z_MSC_RDPS_Rain-Accum1h_Sfc_RLatLon0.09_PT002H.grib2 2026-05-01 20:43 504K
20260501T18Z_MSC_RDPS_Rain-Accum_Sfc_RLatLon0.09_PT002H.grib2 2026-05-01 20:43 804K
20260501T18Z_MSC_RDPS_RelativeHumidity_AGL-2m_RLatLon0.09_PT002H.grib2 2026-05-01 20:43 1.0M
20260501T18Z_MSC_RDPS_RelativeHumidity_IsbL-0010_RLatLon0.09_PT002H.grib2 2026-05-01 20:43 624K
20260501T18Z_MSC_RDPS_RelativeHumidity_IsbL-0020_RLatLon0.09_PT002H.grib2 2026-05-01 20:43 676K
20260501T18Z_MSC_RDPS_RelativeHumidity_IsbL-0030_RLatLon0.09_PT002H.grib2 2026-05-01 20:43 597K
20260501T18Z_MSC_RDPS_RelativeHumidity_IsbL-0050_RLatLon0.09_PT002H.grib2 2026-05-01 20:43 301K
20260501T18Z_MSC_RDPS_RelativeHumidity_IsbL-0100_RLatLon0.09_PT002H.grib2 2026-05-01 20:43 265K
20260501T18Z_MSC_RDPS_RelativeHumidity_IsbL-0150_RLatLon0.09_PT002H.grib2 2026-05-01 20:43 400K
20260501T18Z_MSC_RDPS_RelativeHumidity_IsbL-0175_RLatLon0.09_PT002H.grib2 2026-05-01 20:43 469K
20260501T18Z_MSC_RDPS_RelativeHumidity_IsbL-0200_RLatLon0.09_PT002H.grib2 2026-05-01 20:43 550K
20260501T18Z_MSC_RDPS_RelativeHumidity_IsbL-0225_RLatLon0.09_PT002H.grib2 2026-05-01 20:43 611K
20260501T18Z_MSC_RDPS_RelativeHumidity_IsbL-0250_RLatLon0.09_PT002H.grib2 2026-05-01 20:43 671K
20260501T18Z_MSC_RDPS_RelativeHumidity_IsbL-0275_RLatLon0.09_PT002H.grib2 2026-05-01 20:43 692K
20260501T18Z_MSC_RDPS_RelativeHumidity_IsbL-0300_RLatLon0.09_PT002H.grib2 2026-05-01 20:43 732K
20260501T18Z_MSC_RDPS_RelativeHumidity_IsbL-0350_RLatLon0.09_PT002H.grib2 2026-05-01 20:43 748K
20260501T18Z_MSC_RDPS_RelativeHumidity_IsbL-0400_RLatLon0.09_PT002H.grib2 2026-05-01 20:43 764K
20260501T18Z_MSC_RDPS_RelativeHumidity_IsbL-0450_RLatLon0.09_PT002H.grib2 2026-05-01 20:43 772K
20260501T18Z_MSC_RDPS_RelativeHumidity_IsbL-0500_RLatLon0.09_PT002H.grib2 2026-05-01 20:43 789K
20260501T18Z_MSC_RDPS_RelativeHumidity_IsbL-0550_RLatLon0.09_PT002H.grib2 2026-05-01 20:43 809K
20260501T18Z_MSC_RDPS_RelativeHumidity_IsbL-0600_RLatLon0.09_PT002H.grib2 2026-05-01 20:43 832K
20260501T18Z_MSC_RDPS_RelativeHumidity_IsbL-0650_RLatLon0.09_PT002H.grib2 2026-05-01 20:43 846K
20260501T18Z_MSC_RDPS_RelativeHumidity_IsbL-0700_RLatLon0.09_PT002H.grib2 2026-05-01 20:43 870K
20260501T18Z_MSC_RDPS_RelativeHumidity_IsbL-0750_RLatLon0.09_PT002H.grib2 2026-05-01 20:43 916K
20260501T18Z_MSC_RDPS_RelativeHumidity_IsbL-0800_RLatLon0.09_PT002H.grib2 2026-05-01 20:43 1.0M
20260501T18Z_MSC_RDPS_RelativeHumidity_IsbL-0850_RLatLon0.09_PT002H.grib2 2026-05-01 20:43 1.0M
20260501T18Z_MSC_RDPS_RelativeHumidity_IsbL-0875_RLatLon0.09_PT002H.grib2 2026-05-01 20:43 1.0M
20260501T18Z_MSC_RDPS_RelativeHumidity_IsbL-0900_RLatLon0.09_PT002H.grib2 2026-05-01 20:43 1.0M
20260501T18Z_MSC_RDPS_RelativeHumidity_IsbL-0925_RLatLon0.09_PT002H.grib2 2026-05-01 20:43 1.0M
20260501T18Z_MSC_RDPS_RelativeHumidity_IsbL-0950_RLatLon0.09_PT002H.grib2 2026-05-01 20:43 1.0M
20260501T18Z_MSC_RDPS_RelativeHumidity_IsbL-0970_RLatLon0.09_PT002H.grib2 2026-05-01 20:43 1.0M
20260501T18Z_MSC_RDPS_RelativeHumidity_IsbL-0985_RLatLon0.09_PT002H.grib2 2026-05-01 20:43 1.0M
20260501T18Z_MSC_RDPS_RelativeHumidity_IsbL-1000_RLatLon0.09_PT002H.grib2 2026-05-01 20:43 1.0M
20260501T18Z_MSC_RDPS_RelativeHumidity_IsbL-1015_RLatLon0.09_PT002H.grib2 2026-05-01 20:43 1.0M
20260501T18Z_MSC_RDPS_Runoff-Accum_Sfc_RLatLon0.09_PT002H.grib2 2026-05-01 20:43 42K
20260501T18Z_MSC_RDPS_SWEATIndex_Sfc_RLatLon0.09_PT002H.grib2 2026-05-01 20:43 2.4M
20260501T18Z_MSC_RDPS_SeeingIndex_EAtm_RLatLon0.09_PT002H.grib2 2026-05-01 20:43 1.0M
20260501T18Z_MSC_RDPS_SensibleHeatNetFlux_Sfc_RLatLon0.09_PT002H.grib2 2026-05-01 20:43 357K
20260501T18Z_MSC_RDPS_ShowalterIndex_IsbL-0500_RLatLon0.09_PT002H.grib2 2026-05-01 20:43 2.6M
20260501T18Z_MSC_RDPS_SkyTransparencyIndex_EAtm_RLatLon0.09_PT002H.grib2 2026-05-01 20:43 710K
20260501T18Z_MSC_RDPS_Snow-Accum1h_Sfc_RLatLon0.09_PT002H.grib2 2026-05-01 20:43 421K
20260501T18Z_MSC_RDPS_Snow-Accum_Sfc_RLatLon0.09_PT002H.grib2 2026-05-01 20:43 549K
20260501T18Z_MSC_RDPS_SnowDensity_Sfc_RLatLon0.09_PT002H.grib2 2026-05-01 20:43 164K
20260501T18Z_MSC_RDPS_SnowDepth_Sfc_RLatLon0.09_PT002H.grib2 2026-05-01 20:43 658K
20260501T18Z_MSC_RDPS_SoilTemp_DBS-0to10cm_RLatLon0.09_PT002H.grib2 2026-05-01 20:43 195K
20260501T18Z_MSC_RDPS_SoilTemp_Sfc_RLatLon0.09_PT002H.grib2 2026-05-01 20:43 287K
20260501T18Z_MSC_RDPS_SoilVolumetricIceContent_Sfc_RLatLon0.09_PT002H.grib2 2026-05-01 20:43 161K
20260501T18Z_MSC_RDPS_SoilVolumetricWaterContent_DBS-0to10cm_RLatLon0.09_PT002H.grib2 2026-05-01 20:43 270K
20260501T18Z_MSC_RDPS_SoilVolumetricWaterContent_DBS-0to1cm_RLatLon0.09_PT002H.grib2 2026-05-01 20:43 333K
20260501T18Z_MSC_RDPS_SpecificHumidity_AGL-120m_RLatLon0.09_PT002H.grib2 2026-05-01 20:43 484K
20260501T18Z_MSC_RDPS_SpecificHumidity_AGL-2m_RLatLon0.09_PT002H.grib2 2026-05-01 20:43 650K
20260501T18Z_MSC_RDPS_SpecificHumidity_AGL-40m_RLatLon0.09_PT002H.grib2 2026-05-01 20:43 488K
20260501T18Z_MSC_RDPS_SpecificHumidity_AGL-80m_RLatLon0.09_PT002H.grib2 2026-05-01 20:43 485K
20260501T18Z_MSC_RDPS_SpecificHumidity_IsbL-0001_RLatLon0.09_PT002H.grib2 2026-05-01 20:43 402K
20260501T18Z_MSC_RDPS_SpecificHumidity_IsbL-0005_RLatLon0.09_PT002H.grib2 2026-05-01 20:43 355K
20260501T18Z_MSC_RDPS_SpecificHumidity_IsbL-0010_RLatLon0.09_PT002H.grib2 2026-05-01 20:43 387K
20260501T18Z_MSC_RDPS_SpecificHumidity_IsbL-0020_RLatLon0.09_PT002H.grib2 2026-05-01 20:43 377K
20260501T18Z_MSC_RDPS_SpecificHumidity_IsbL-0030_RLatLon0.09_PT002H.grib2 2026-05-01 20:43 369K
20260501T18Z_MSC_RDPS_SpecificHumidity_IsbL-0050_RLatLon0.09_PT002H.grib2 2026-05-01 20:43 478K
20260501T18Z_MSC_RDPS_SpecificHumidity_IsbL-0100_RLatLon0.09_PT002H.grib2 2026-05-01 20:43 431K
20260501T18Z_MSC_RDPS_SpecificHumidity_IsbL-0150_RLatLon0.09_PT002H.grib2 2026-05-01 20:43 468K
20260501T18Z_MSC_RDPS_SpecificHumidity_IsbL-0175_RLatLon0.09_PT002H.grib2 2026-05-01 20:43 427K
20260501T18Z_MSC_RDPS_SpecificHumidity_IsbL-0200_RLatLon0.09_PT002H.grib2 2026-05-01 20:43 447K
20260501T18Z_MSC_RDPS_SpecificHumidity_IsbL-0225_RLatLon0.09_PT002H.grib2 2026-05-01 20:43 448K
20260501T18Z_MSC_RDPS_SpecificHumidity_IsbL-0250_RLatLon0.09_PT002H.grib2 2026-05-01 20:43 504K
20260501T18Z_MSC_RDPS_SpecificHumidity_IsbL-0275_RLatLon0.09_PT002H.grib2 2026-05-01 20:43 463K
20260501T18Z_MSC_RDPS_SpecificHumidity_IsbL-0300_RLatLon0.09_PT002H.grib2 2026-05-01 20:43 438K
20260501T18Z_MSC_RDPS_SpecificHumidity_IsbL-0350_RLatLon0.09_PT002H.grib2 2026-05-01 20:43 427K
20260501T18Z_MSC_RDPS_SpecificHumidity_IsbL-0400_RLatLon0.09_PT002H.grib2 2026-05-01 20:43 502K
20260501T18Z_MSC_RDPS_SpecificHumidity_IsbL-0450_RLatLon0.09_PT002H.grib2 2026-05-01 20:43 443K
20260501T18Z_MSC_RDPS_SpecificHumidity_IsbL-0500_RLatLon0.09_PT002H.grib2 2026-05-01 20:43 492K
20260501T18Z_MSC_RDPS_SpecificHumidity_IsbL-0550_RLatLon0.09_PT002H.grib2 2026-05-01 20:43 567K
20260501T18Z_MSC_RDPS_SpecificHumidity_IsbL-0600_RLatLon0.09_PT002H.grib2 2026-05-01 20:43 501K
20260501T18Z_MSC_RDPS_SpecificHumidity_IsbL-0650_RLatLon0.09_PT002H.grib2 2026-05-01 20:43 538K
20260501T18Z_MSC_RDPS_SpecificHumidity_IsbL-0700_RLatLon0.09_PT002H.grib2 2026-05-01 20:43 580K
20260501T18Z_MSC_RDPS_SpecificHumidity_IsbL-0750_RLatLon0.09_PT002H.grib2 2026-05-01 20:43 653K
20260501T18Z_MSC_RDPS_SpecificHumidity_IsbL-0800_RLatLon0.09_PT002H.grib2 2026-05-01 20:43 726K
20260501T18Z_MSC_RDPS_SpecificHumidity_IsbL-0850_RLatLon0.09_PT002H.grib2 2026-05-01 20:43 799K
20260501T18Z_MSC_RDPS_SpecificHumidity_IsbL-0875_RLatLon0.09_PT002H.grib2 2026-05-01 20:43 688K
20260501T18Z_MSC_RDPS_SpecificHumidity_IsbL-0900_RLatLon0.09_PT002H.grib2 2026-05-01 20:43 700K
20260501T18Z_MSC_RDPS_SpecificHumidity_IsbL-0925_RLatLon0.09_PT002H.grib2 2026-05-01 20:43 701K
20260501T18Z_MSC_RDPS_SpecificHumidity_IsbL-0950_RLatLon0.09_PT002H.grib2 2026-05-01 20:43 705K
20260501T18Z_MSC_RDPS_SpecificHumidity_IsbL-0970_RLatLon0.09_PT002H.grib2 2026-05-01 20:43 693K
20260501T18Z_MSC_RDPS_SpecificHumidity_IsbL-0985_RLatLon0.09_PT002H.grib2 2026-05-01 20:43 684K
20260501T18Z_MSC_RDPS_SpecificHumidity_IsbL-1000_RLatLon0.09_PT002H.grib2 2026-05-01 20:43 676K
20260501T18Z_MSC_RDPS_SpecificHumidity_IsbL-1015_RLatLon0.09_PT002H.grib2 2026-05-01 20:43 662K
20260501T18Z_MSC_RDPS_SpecificHumidity_Sfc_RLatLon0.09_PT002H.grib2 2026-05-01 20:43 340K
20260501T18Z_MSC_RDPS_StormRelativeHelicity_EtaL-10000_RLatLon0.09_PT002H.grib2 2026-05-01 20:43 1.1M
20260501T18Z_MSC_RDPS_StormSeverityIndex_EtaL-10000_RLatLon0.09_PT002H.grib2 2026-05-01 20:43 1.2M
20260501T18Z_MSC_RDPS_Thickness_IsbL-0850to0700_RLatLon0.09_PT002H.grib2 2026-05-01 20:43 177K
20260501T18Z_MSC_RDPS_Thickness_IsbL-1000to0500_RLatLon0.09_PT002H.grib2 2026-05-01 20:43 136K
20260501T18Z_MSC_RDPS_Thickness_IsbL-1000to0850_RLatLon0.09_PT002H.grib2 2026-05-01 20:43 187K
20260501T18Z_MSC_RDPS_TotalCloudCover_Sfc_RLatLon0.09_PT002H.grib2 2026-05-01 20:43 635K
20260501T18Z_MSC_RDPS_TotalTotalsIndex_Sfc_RLatLon0.09_PT002H.grib2 2026-05-01 20:43 2.3M
20260501T18Z_MSC_RDPS_UVIndex-ClearSky_Sfc_RLatLon0.09_PT002H.grib2 2026-05-01 20:43 215K
20260501T18Z_MSC_RDPS_UVIndex_Sfc_RLatLon0.09_PT002H.grib2 2026-05-01 20:43 495K
20260501T18Z_MSC_RDPS_UpwardLongwaveRadiationFlux_NTAtm_RLatLon0.09_PT002H.grib2 2026-05-01 20:43 378K
20260501T18Z_MSC_RDPS_UpwardShortwaveRadiationFlux_NTAtm_RLatLon0.09_PT002H.grib2 2026-05-01 20:43 531K
20260501T18Z_MSC_RDPS_VerticalVelocity_IsbL-0250_RLatLon0.09_PT002H.grib2 2026-05-01 20:43 417K
20260501T18Z_MSC_RDPS_VerticalVelocity_IsbL-0500_RLatLon0.09_PT002H.grib2 2026-05-01 20:43 530K
20260501T18Z_MSC_RDPS_VerticalVelocity_IsbL-0700_RLatLon0.09_PT002H.grib2 2026-05-01 20:43 616K
20260501T18Z_MSC_RDPS_VerticalVelocity_IsbL-0850_RLatLon0.09_PT002H.grib2 2026-05-01 20:43 710K
20260501T18Z_MSC_RDPS_VerticalWindShear_EtaL-6500_RLatLon0.09_PT002H.grib2 2026-05-01 20:43 1.2M
20260501T18Z_MSC_RDPS_WindChill_Sfc_RLatLon0.09_PT002H.grib2 2026-05-01 20:43 1.1M
20260501T18Z_MSC_RDPS_WindDir_AGL-10m_RLatLon0.09_PT002H.grib2 2026-05-01 20:43 947K
20260501T18Z_MSC_RDPS_WindDir_AGL-120m_RLatLon0.09_PT002H.grib2 2026-05-01 20:43 598K
20260501T18Z_MSC_RDPS_WindDir_AGL-40m_RLatLon0.09_PT002H.grib2 2026-05-01 20:43 620K
20260501T18Z_MSC_RDPS_WindDir_AGL-80m_RLatLon0.09_PT002H.grib2 2026-05-01 20:43 607K
20260501T18Z_MSC_RDPS_WindDir_IsbL-0001_RLatLon0.09_PT002H.grib2 2026-05-01 20:43 282K
20260501T18Z_MSC_RDPS_WindDir_IsbL-0005_RLatLon0.09_PT002H.grib2 2026-05-01 20:43 334K
20260501T18Z_MSC_RDPS_WindDir_IsbL-0010_RLatLon0.09_PT002H.grib2 2026-05-01 20:43 344K
20260501T18Z_MSC_RDPS_WindDir_IsbL-0020_RLatLon0.09_PT002H.grib2 2026-05-01 20:43 390K
20260501T18Z_MSC_RDPS_WindDir_IsbL-0030_RLatLon0.09_PT002H.grib2 2026-05-01 20:43 390K
20260501T18Z_MSC_RDPS_WindDir_IsbL-0050_RLatLon0.09_PT002H.grib2 2026-05-01 20:43 385K
20260501T18Z_MSC_RDPS_WindDir_IsbL-0100_RLatLon0.09_PT002H.grib2 2026-05-01 20:43 402K
20260501T18Z_MSC_RDPS_WindDir_IsbL-0150_RLatLon0.09_PT002H.grib2 2026-05-01 20:43 400K
20260501T18Z_MSC_RDPS_WindDir_IsbL-0175_RLatLon0.09_PT002H.grib2 2026-05-01 20:43 426K
20260501T18Z_MSC_RDPS_WindDir_IsbL-0200_RLatLon0.09_PT002H.grib2 2026-05-01 20:43 439K
20260501T18Z_MSC_RDPS_WindDir_IsbL-0225_RLatLon0.09_PT002H.grib2 2026-05-01 20:43 443K
20260501T18Z_MSC_RDPS_WindDir_IsbL-0250_RLatLon0.09_PT002H.grib2 2026-05-01 20:43 443K
20260501T18Z_MSC_RDPS_WindDir_IsbL-0275_RLatLon0.09_PT002H.grib2 2026-05-01 20:43 462K
20260501T18Z_MSC_RDPS_WindDir_IsbL-0300_RLatLon0.09_PT002H.grib2 2026-05-01 20:43 462K
20260501T18Z_MSC_RDPS_WindDir_IsbL-0350_RLatLon0.09_PT002H.grib2 2026-05-01 20:43 483K
20260501T18Z_MSC_RDPS_WindDir_IsbL-0400_RLatLon0.09_PT002H.grib2 2026-05-01 20:43 497K
20260501T18Z_MSC_RDPS_WindDir_IsbL-0450_RLatLon0.09_PT002H.grib2 2026-05-01 20:43 512K
20260501T18Z_MSC_RDPS_WindDir_IsbL-0500_RLatLon0.09_PT002H.grib2 2026-05-01 20:43 525K
20260501T18Z_MSC_RDPS_WindDir_IsbL-0550_RLatLon0.09_PT002H.grib2 2026-05-01 20:43 546K
20260501T18Z_MSC_RDPS_WindDir_IsbL-0600_RLatLon0.09_PT002H.grib2 2026-05-01 20:43 577K
20260501T18Z_MSC_RDPS_WindDir_IsbL-0650_RLatLon0.09_PT002H.grib2 2026-05-01 20:43 620K
20260501T18Z_MSC_RDPS_WindDir_IsbL-0700_RLatLon0.09_PT002H.grib2 2026-05-01 20:43 668K
20260501T18Z_MSC_RDPS_WindDir_IsbL-0750_RLatLon0.09_PT002H.grib2 2026-05-01 20:43 718K
20260501T18Z_MSC_RDPS_WindDir_IsbL-0800_RLatLon0.09_PT002H.grib2 2026-05-01 20:43 789K
20260501T18Z_MSC_RDPS_WindDir_IsbL-0850_RLatLon0.09_PT002H.grib2 2026-05-01 20:43 856K
20260501T18Z_MSC_RDPS_WindDir_IsbL-0875_RLatLon0.09_PT002H.grib2 2026-05-01 20:43 877K
20260501T18Z_MSC_RDPS_WindDir_IsbL-0900_RLatLon0.09_PT002H.grib2 2026-05-01 20:43 891K
20260501T18Z_MSC_RDPS_WindDir_IsbL-0925_RLatLon0.09_PT002H.grib2 2026-05-01 20:43 900K
20260501T18Z_MSC_RDPS_WindDir_IsbL-0950_RLatLon0.09_PT002H.grib2 2026-05-01 20:43 902K
20260501T18Z_MSC_RDPS_WindDir_IsbL-0970_RLatLon0.09_PT002H.grib2 2026-05-01 20:43 906K
20260501T18Z_MSC_RDPS_WindDir_IsbL-0985_RLatLon0.09_PT002H.grib2 2026-05-01 20:43 912K
20260501T18Z_MSC_RDPS_WindDir_IsbL-1000_RLatLon0.09_PT002H.grib2 2026-05-01 20:43 925K
20260501T18Z_MSC_RDPS_WindDir_IsbL-1015_RLatLon0.09_PT002H.grib2 2026-05-01 20:43 940K
20260501T18Z_MSC_RDPS_WindGust-Max_AGL-10m_RLatLon0.09_PT002H.grib2 2026-05-01 20:43 1.0M
20260501T18Z_MSC_RDPS_WindGust-Min_AGL-10m_RLatLon0.09_PT002H.grib2 2026-05-01 20:43 955K
20260501T18Z_MSC_RDPS_WindGust_AGL-10m_RLatLon0.09_PT002H.grib2 2026-05-01 20:43 966K
20260501T18Z_MSC_RDPS_WindSpeed_AGL-10m_RLatLon0.09_PT002H.grib2 2026-05-01 20:43 820K
20260501T18Z_MSC_RDPS_WindSpeed_AGL-120m_RLatLon0.09_PT002H.grib2 2026-05-01 20:43 522K
20260501T18Z_MSC_RDPS_WindSpeed_AGL-40m_RLatLon0.09_PT002H.grib2 2026-05-01 20:43 525K
20260501T18Z_MSC_RDPS_WindSpeed_AGL-80m_RLatLon0.09_PT002H.grib2 2026-05-01 20:43 523K
20260501T18Z_MSC_RDPS_WindSpeed_IsbL-0001_RLatLon0.09_PT002H.grib2 2026-05-01 20:43 246K
20260501T18Z_MSC_RDPS_WindSpeed_IsbL-0005_RLatLon0.09_PT002H.grib2 2026-05-01 20:43 361K
20260501T18Z_MSC_RDPS_WindSpeed_IsbL-0010_RLatLon0.09_PT002H.grib2 2026-05-01 20:43 373K
20260501T18Z_MSC_RDPS_WindSpeed_IsbL-0020_RLatLon0.09_PT002H.grib2 2026-05-01 20:43 303K
20260501T18Z_MSC_RDPS_WindSpeed_IsbL-0030_RLatLon0.09_PT002H.grib2 2026-05-01 20:43 302K
20260501T18Z_MSC_RDPS_WindSpeed_IsbL-0050_RLatLon0.09_PT002H.grib2 2026-05-01 20:43 425K
20260501T18Z_MSC_RDPS_WindSpeed_IsbL-0100_RLatLon0.09_PT002H.grib2 2026-05-01 20:43 457K
20260501T18Z_MSC_RDPS_WindSpeed_IsbL-0150_RLatLon0.09_PT002H.grib2 2026-05-01 20:43 370K
20260501T18Z_MSC_RDPS_WindSpeed_IsbL-0175_RLatLon0.09_PT002H.grib2 2026-05-01 20:43 418K
20260501T18Z_MSC_RDPS_WindSpeed_IsbL-0200_RLatLon0.09_PT002H.grib2 2026-05-01 20:43 433K
20260501T18Z_MSC_RDPS_WindSpeed_IsbL-0225_RLatLon0.09_PT002H.grib2 2026-05-01 20:43 440K
20260501T18Z_MSC_RDPS_WindSpeed_IsbL-0250_RLatLon0.09_PT002H.grib2 2026-05-01 20:43 441K
20260501T18Z_MSC_RDPS_WindSpeed_IsbL-0275_RLatLon0.09_PT002H.grib2 2026-05-01 20:43 456K
20260501T18Z_MSC_RDPS_WindSpeed_IsbL-0300_RLatLon0.09_PT002H.grib2 2026-05-01 20:43 453K
20260501T18Z_MSC_RDPS_WindSpeed_IsbL-0350_RLatLon0.09_PT002H.grib2 2026-05-01 20:43 461K
20260501T18Z_MSC_RDPS_WindSpeed_IsbL-0400_RLatLon0.09_PT002H.grib2 2026-05-01 20:43 464K
20260501T18Z_MSC_RDPS_WindSpeed_IsbL-0450_RLatLon0.09_PT002H.grib2 2026-05-01 20:43 447K
20260501T18Z_MSC_RDPS_WindSpeed_IsbL-0500_RLatLon0.09_PT002H.grib2 2026-05-01 20:43 449K
20260501T18Z_MSC_RDPS_WindSpeed_IsbL-0550_RLatLon0.09_PT002H.grib2 2026-05-01 20:43 568K
20260501T18Z_MSC_RDPS_WindSpeed_IsbL-0600_RLatLon0.09_PT002H.grib2 2026-05-01 20:43 581K
20260501T18Z_MSC_RDPS_WindSpeed_IsbL-0650_RLatLon0.09_PT002H.grib2 2026-05-01 20:43 603K
20260501T18Z_MSC_RDPS_WindSpeed_IsbL-0700_RLatLon0.09_PT002H.grib2 2026-05-01 20:43 673K
20260501T18Z_MSC_RDPS_WindSpeed_IsbL-0750_RLatLon0.09_PT002H.grib2 2026-05-01 20:43 705K
20260501T18Z_MSC_RDPS_WindSpeed_IsbL-0800_RLatLon0.09_PT002H.grib2 2026-05-01 20:43 750K
20260501T18Z_MSC_RDPS_WindSpeed_IsbL-0850_RLatLon0.09_PT002H.grib2 2026-05-01 20:43 801K
20260501T18Z_MSC_RDPS_WindSpeed_IsbL-0875_RLatLon0.09_PT002H.grib2 2026-05-01 20:43 811K
20260501T18Z_MSC_RDPS_WindSpeed_IsbL-0900_RLatLon0.09_PT002H.grib2 2026-05-01 20:43 825K
20260501T18Z_MSC_RDPS_WindSpeed_IsbL-0925_RLatLon0.09_PT002H.grib2 2026-05-01 20:43 840K
20260501T18Z_MSC_RDPS_WindSpeed_IsbL-0950_RLatLon0.09_PT002H.grib2 2026-05-01 20:43 840K
20260501T18Z_MSC_RDPS_WindSpeed_IsbL-0970_RLatLon0.09_PT002H.grib2 2026-05-01 20:43 841K
20260501T18Z_MSC_RDPS_WindSpeed_IsbL-0985_RLatLon0.09_PT002H.grib2 2026-05-01 20:43 837K
20260501T18Z_MSC_RDPS_WindSpeed_IsbL-1000_RLatLon0.09_PT002H.grib2 2026-05-01 20:43 831K
20260501T18Z_MSC_RDPS_WindSpeed_IsbL-1015_RLatLon0.09_PT002H.grib2 2026-05-01 20:43 821K
20260501T18Z_MSC_RDPS_WindU_AGL-10m_RLatLon0.09_PT002H.grib2 2026-05-01 20:43 425K
20260501T18Z_MSC_RDPS_WindU_AGL-120m_RLatLon0.09_PT002H.grib2 2026-05-01 20:43 523K
20260501T18Z_MSC_RDPS_WindU_AGL-40m_RLatLon0.09_PT002H.grib2 2026-05-01 20:43 526K
20260501T18Z_MSC_RDPS_WindU_AGL-80m_RLatLon0.09_PT002H.grib2 2026-05-01 20:43 524K
20260501T18Z_MSC_RDPS_WindU_IsbL-0001_RLatLon0.09_PT002H.grib2 2026-05-01 20:43 236K
20260501T18Z_MSC_RDPS_WindU_IsbL-0005_RLatLon0.09_PT002H.grib2 2026-05-01 20:43 271K
20260501T18Z_MSC_RDPS_WindU_IsbL-0010_RLatLon0.09_PT002H.grib2 2026-05-01 20:43 279K
20260501T18Z_MSC_RDPS_WindU_IsbL-0020_RLatLon0.09_PT002H.grib2 2026-05-01 20:43 294K
20260501T18Z_MSC_RDPS_WindU_IsbL-0030_RLatLon0.09_PT002H.grib2 2026-05-01 20:43 295K
20260501T18Z_MSC_RDPS_WindU_IsbL-0050_RLatLon0.09_PT002H.grib2 2026-05-01 20:43 320K
20260501T18Z_MSC_RDPS_WindU_IsbL-0100_RLatLon0.09_PT002H.grib2 2026-05-01 20:43 413K
20260501T18Z_MSC_RDPS_WindU_IsbL-0150_RLatLon0.09_PT002H.grib2 2026-05-01 20:43 387K
20260501T18Z_MSC_RDPS_WindU_IsbL-0175_RLatLon0.09_PT002H.grib2 2026-05-01 20:43 411K
20260501T18Z_MSC_RDPS_WindU_IsbL-0200_RLatLon0.09_PT002H.grib2 2026-05-01 20:43 330K
20260501T18Z_MSC_RDPS_WindU_IsbL-0225_RLatLon0.09_PT002H.grib2 2026-05-01 20:43 335K
20260501T18Z_MSC_RDPS_WindU_IsbL-0250_RLatLon0.09_PT002H.grib2 2026-05-01 20:43 334K
20260501T18Z_MSC_RDPS_WindU_IsbL-0275_RLatLon0.09_PT002H.grib2 2026-05-01 20:43 347K
20260501T18Z_MSC_RDPS_WindU_IsbL-0300_RLatLon0.09_PT002H.grib2 2026-05-01 20:43 343K
20260501T18Z_MSC_RDPS_WindU_IsbL-0350_RLatLon0.09_PT002H.grib2 2026-05-01 20:43 350K
20260501T18Z_MSC_RDPS_WindU_IsbL-0400_RLatLon0.09_PT002H.grib2 2026-05-01 20:43 453K
20260501T18Z_MSC_RDPS_WindU_IsbL-0450_RLatLon0.09_PT002H.grib2 2026-05-01 20:43 454K
20260501T18Z_MSC_RDPS_WindU_IsbL-0500_RLatLon0.09_PT002H.grib2 2026-05-01 20:43 457K
20260501T18Z_MSC_RDPS_WindU_IsbL-0550_RLatLon0.09_PT002H.grib2 2026-05-01 20:43 462K
20260501T18Z_MSC_RDPS_WindU_IsbL-0600_RLatLon0.09_PT002H.grib2 2026-05-01 20:43 474K
20260501T18Z_MSC_RDPS_WindU_IsbL-0650_RLatLon0.09_PT002H.grib2 2026-05-01 20:43 476K
20260501T18Z_MSC_RDPS_WindU_IsbL-0700_RLatLon0.09_PT002H.grib2 2026-05-01 20:43 500K
20260501T18Z_MSC_RDPS_WindU_IsbL-0750_RLatLon0.09_PT002H.grib2 2026-05-01 20:43 528K
20260501T18Z_MSC_RDPS_WindU_IsbL-0800_RLatLon0.09_PT002H.grib2 2026-05-01 20:43 567K
20260501T18Z_MSC_RDPS_WindU_IsbL-0850_RLatLon0.09_PT002H.grib2 2026-05-01 20:43 611K
20260501T18Z_MSC_RDPS_WindU_IsbL-0875_RLatLon0.09_PT002H.grib2 2026-05-01 20:43 625K
20260501T18Z_MSC_RDPS_WindU_IsbL-0900_RLatLon0.09_PT002H.grib2 2026-05-01 20:43 635K
20260501T18Z_MSC_RDPS_WindU_IsbL-0925_RLatLon0.09_PT002H.grib2 2026-05-01 20:43 644K
20260501T18Z_MSC_RDPS_WindU_IsbL-0950_RLatLon0.09_PT002H.grib2 2026-05-01 20:43 641K
20260501T18Z_MSC_RDPS_WindU_IsbL-0970_RLatLon0.09_PT002H.grib2 2026-05-01 20:43 641K
20260501T18Z_MSC_RDPS_WindU_IsbL-0985_RLatLon0.09_PT002H.grib2 2026-05-01 20:43 776K
20260501T18Z_MSC_RDPS_WindU_IsbL-1000_RLatLon0.09_PT002H.grib2 2026-05-01 20:43 773K
20260501T18Z_MSC_RDPS_WindU_IsbL-1015_RLatLon0.09_PT002H.grib2 2026-05-01 20:43 766K
20260501T18Z_MSC_RDPS_WindV_AGL-10m_RLatLon0.09_PT002H.grib2 2026-05-01 20:43 424K
20260501T18Z_MSC_RDPS_WindV_AGL-120m_RLatLon0.09_PT002H.grib2 2026-05-01 20:43 520K
20260501T18Z_MSC_RDPS_WindV_AGL-40m_RLatLon0.09_PT002H.grib2 2026-05-01 20:43 522K
20260501T18Z_MSC_RDPS_WindV_AGL-80m_RLatLon0.09_PT002H.grib2 2026-05-01 20:43 520K
20260501T18Z_MSC_RDPS_WindV_IsbL-0001_RLatLon0.09_PT002H.grib2 2026-05-01 20:43 286K
20260501T18Z_MSC_RDPS_WindV_IsbL-0005_RLatLon0.09_PT002H.grib2 2026-05-01 20:43 271K
20260501T18Z_MSC_RDPS_WindV_IsbL-0010_RLatLon0.09_PT002H.grib2 2026-05-01 20:43 280K
20260501T18Z_MSC_RDPS_WindV_IsbL-0020_RLatLon0.09_PT002H.grib2 2026-05-01 20:43 296K
20260501T18Z_MSC_RDPS_WindV_IsbL-0030_RLatLon0.09_PT002H.grib2 2026-05-01 20:43 296K
20260501T18Z_MSC_RDPS_WindV_IsbL-0050_RLatLon0.09_PT002H.grib2 2026-05-01 20:43 319K
20260501T18Z_MSC_RDPS_WindV_IsbL-0100_RLatLon0.09_PT002H.grib2 2026-05-01 20:43 409K
20260501T18Z_MSC_RDPS_WindV_IsbL-0150_RLatLon0.09_PT002H.grib2 2026-05-01 20:43 385K
20260501T18Z_MSC_RDPS_WindV_IsbL-0175_RLatLon0.09_PT002H.grib2 2026-05-01 20:43 409K
20260501T18Z_MSC_RDPS_WindV_IsbL-0200_RLatLon0.09_PT002H.grib2 2026-05-01 20:43 329K
20260501T18Z_MSC_RDPS_WindV_IsbL-0225_RLatLon0.09_PT002H.grib2 2026-05-01 20:43 332K
20260501T18Z_MSC_RDPS_WindV_IsbL-0250_RLatLon0.09_PT002H.grib2 2026-05-01 20:43 332K
20260501T18Z_MSC_RDPS_WindV_IsbL-0275_RLatLon0.09_PT002H.grib2 2026-05-01 20:43 345K
20260501T18Z_MSC_RDPS_WindV_IsbL-0300_RLatLon0.09_PT002H.grib2 2026-05-01 20:43 341K
20260501T18Z_MSC_RDPS_WindV_IsbL-0350_RLatLon0.09_PT002H.grib2 2026-05-01 20:43 445K
20260501T18Z_MSC_RDPS_WindV_IsbL-0400_RLatLon0.09_PT002H.grib2 2026-05-01 20:43 447K
20260501T18Z_MSC_RDPS_WindV_IsbL-0450_RLatLon0.09_PT002H.grib2 2026-05-01 20:43 449K
20260501T18Z_MSC_RDPS_WindV_IsbL-0500_RLatLon0.09_PT002H.grib2 2026-05-01 20:43 453K
20260501T18Z_MSC_RDPS_WindV_IsbL-0550_RLatLon0.09_PT002H.grib2 2026-05-01 20:43 457K
20260501T18Z_MSC_RDPS_WindV_IsbL-0600_RLatLon0.09_PT002H.grib2 2026-05-01 20:43 451K
20260501T18Z_MSC_RDPS_WindV_IsbL-0650_RLatLon0.09_PT002H.grib2 2026-05-01 20:43 471K
20260501T18Z_MSC_RDPS_WindV_IsbL-0700_RLatLon0.09_PT002H.grib2 2026-05-01 20:43 496K
20260501T18Z_MSC_RDPS_WindV_IsbL-0750_RLatLon0.09_PT002H.grib2 2026-05-01 20:43 523K
20260501T18Z_MSC_RDPS_WindV_IsbL-0800_RLatLon0.09_PT002H.grib2 2026-05-01 20:43 560K
20260501T18Z_MSC_RDPS_WindV_IsbL-0850_RLatLon0.09_PT002H.grib2 2026-05-01 20:43 606K
20260501T18Z_MSC_RDPS_WindV_IsbL-0875_RLatLon0.09_PT002H.grib2 2026-05-01 20:43 623K
20260501T18Z_MSC_RDPS_WindV_IsbL-0900_RLatLon0.09_PT002H.grib2 2026-05-01 20:43 632K
20260501T18Z_MSC_RDPS_WindV_IsbL-0925_RLatLon0.09_PT002H.grib2 2026-05-01 20:43 642K
20260501T18Z_MSC_RDPS_WindV_IsbL-0950_RLatLon0.09_PT002H.grib2 2026-05-01 20:43 778K
20260501T18Z_MSC_RDPS_WindV_IsbL-0970_RLatLon0.09_PT002H.grib2 2026-05-01 20:43 777K
20260501T18Z_MSC_RDPS_WindV_IsbL-0985_RLatLon0.09_PT002H.grib2 2026-05-01 20:43 773K
20260501T18Z_MSC_RDPS_WindV_IsbL-1000_RLatLon0.09_PT002H.grib2 2026-05-01 20:43 769K
20260501T18Z_MSC_RDPS_WindV_IsbL-1015_RLatLon0.09_PT002H.grib2 2026-05-01 20:43 807K